Location: Bishop�s Knoyle
(51.0728°N, 2.1714°W)
Time: 22:13:57
(UTC+00:00)

Envisat - Pass Details

Date: 24 September 2021
Orbit: 764 x 766 km, 98.2° (Epoch: 21 October)

Event Time Altitude Azimuth Distance (km) Brightness Sun altitude
Rises 04:32:43 0° 22° (NNE) 3,245 6.8 -14.1°
Reaches altitude 10° 04:35:20 10° 33° (NNE) 2,313 6.2 -13.7°
Maximum altitude 04:39:46 29° 94° (E) 1,370 5.1 -13.0°
Drops below altitude 10° 04:44:09 10° 154° (SSE) 2,297 5.6 -12.3°
Sets 04:46:44 0° 165° (SSE) 3,218 6.2 -11.9°
